Theta_e
297 297 298 298 298 297 298 299 300 300 300 300 301 301 302 303 304 305 306 307 308 309 310 311 311 312 312 314 314 314 315 314 314 314 314 314 314 314 313 313 313 313 313 313 313 313 313 313 313 313 313 313 313 312 312 311 311 310 309 309 308 307 307 306 305 305 305 305 305 305 304 303 303 303 303 303 303 303 303 302 302 302 302 302 303 304
297 297 297 297 297 297 297 298 299 300 299 299 300 300 301 302 302 303 304 305 307 308 309 309 310 311 311 312 313 313 313 313 313 313 313 313 312 312 312 312 312 312 312 312 312 312 312 312 312 312 312 311 311 311 310 310 310 309 309 308 308 307 306 306 305 305 305 305 304 304 303 303 302 302 302 302 302 302 302 302 302 302 302 302 303 303
296 297 297 297 297 297 297 297 298 299 299 299 299 300 300 300 301 301 302 304 305 306 307 308 309 309 310 311 312 312 312 312 312 312 312 312 312 312 312 312 311 311 311 311 311 311 311 311 311 311 311 310 310 310 309 309 309 308 308 307 307 306 306 305 305 305 304 304 304 303 302 302 302 302 302 302 302 302 302 302 302 301 302 302 303 303
296 297 297 297 297 297 297 297 298 298 299 298 299 299 299 299 299 300 300 302 303 304 305 307 307 308 309 310 311 312 312 312 312 312 311 311 311 311 311 310 310 311 310 310 310 310 310 310 310 310 309 309 309 309 309 308 308 307 307 306 306 305 305 304 304 304 304 303 303 302 302 301 301 301 302 302 302 301 301 302 301 301 301 302 303 303
297 297 297 297 296 296 296 297 298 298 298 298 298 298 298 298 298 299 299 300 301 302 303 305 306 306 307 308 309 311 311 311 311 311 310 310 310 310 310 310 310 310 309 309 309 309 309 309 309 309 309 308 308 308 308 307 307 307 306 306 305 305 304 304 303 303 303 303 302 301 301 301 301 301 301 301 301 301 301 301 301 301 301 302 302 303
296 297 297 296 296 295 295 297 297 298 297 297 296 296 297 297 297 297 298 299 299 300 301 302 303 305 306 307 308 309 310 310 310 310 310 310 310 309 309 309 309 309 309 308 309 308 308 308 308 307 308 307 307 307 307 307 306 306 306 305 305 304 304 303 303 303 303 302 302 301 301 301 300 300 301 301 301 301 301 301 301 301 301 301 302 302
296 296 296 295 295 295 295 296 297 297 297 296 295 295 296 296 296 296 296 297 297 298 299 300 301 302 304 306 307 308 308 308 308 308 309 309 309 309 309 308 308 308 308 308 308 307 307 307 307 306 306 306 306 306 306 306 305 305 305 304 304 304 303 303 303 302 302 302 301 301 300 300 300 300 300 300 300 301 301 301 301 301 300 301 301 301
295 295 295 294 294 294 294 294 295 296 297 296 295 295 294 295 295 295 295 296 296 296 297 298 299 299 301 303 304 305 305 306 306 306 307 307 307 307 307 308 308 307 307 307 307 306 306 306 306 306 306 305 305 305 305 305 305 304 304 304 303 303 303 302 302 302 302 301 301 300 300 300 300 300 299 300 300 300 300 300 300 300 300 300 300 301
295 294 294 294 294 294 293 293 293 295 295 296 295 295 294 294 294 294 294 295 295 295 296 296 296 297 298 300 301 302 303 303 303 304 304 305 305 306 306 307 306 306 306 306 306 306 305 305 305 305 305 305 304 304 304 304 304 304 304 303 303 303 302 302 302 301 301 301 300 300 300 299 299 299 299 299 299 299 299 299 299 299 299 299 299 300
295 294 293 293 293 294 293 292 292 293 294 295 295 295 294 294 293 293 293 293 293 294 295 295 295 295 296 297 299 300 302 302 303 304 304 304 304 305 305 305 305 306 305 306 305 305 305 305 304 304 304 304 304 304 303 303 303 303 303 303 302 302 302 301 301 301 301 300 300 299 299 299 299 299 298 298 298 298 298 298 298 298 298 298 299 299
294 294 293 293 293 293 293 292 291 292 293 294 294 294 294 294 294 293 292 291 292 292 293 293 294 295 295 296 297 299 300 300 302 303 304 303 304 304 304 304 304 305 305 305 304 304 304 304 304 304 304 303 303 303 303 303 303 302 302 302 302 302 301 301 300 300 300 299 299 299 299 298 298 298 298 297 297 297 297 297 297 297 297 297 297 298
294 293 293 293 292 292 291 291 291 291 293 293 293 292 292 293 294 293 293 292 291 292 292 292 292 293 294 294 296 297 298 298 298 299 300 301 301 302 301 302 303 303 304 304 304 304 304 303 303 303 303 303 303 302 302 302 302 302 302 301 301 301 301 300 300 300 299 299 299 298 298 298 298 297 297 297 297 296 296 296 296 296 296 296 297 297
294 294 293 293 292 291 290 290 290 291 292 293 293 292 292 292 293 293 293 292 292 292 292 291 291 291 291 292 294 295 296 296 296 296 297 297 297 297 298 298 299 299 300 301 301 302 303 303 303 303 302 302 302 301 301 301 301 301 301 301 300 300 300 299 299 299 299 298 298 298 298 297 297 297 297 297 297 296 296 296 295 295 295 295 296 296
294 293 293 292 291 291 291 291 291 291 292 293 293 293 293 293 293 293 293 292 291 292 292 291 290 289 289 289 290 292 295 295 295 295 295 294 294 294 295 295 295 295 295 296 297 299 302 302 301 301 302 301 301 300 300 300 300 300 300 300 300 300 299 299 299 299 298 298 298 298 298 297 297 297 297 297 297 296 296 296 295 295 295 295 295 295
293 293 292 291 291 291 291 291 291 292 292 293 293 293 292 292 292 292 292 291 290 290 291 290 289 288 288 288 288 289 294 294 294 293 293 291 290 290 293 294 293 292 293 294 295 296 300 299 299 299 300 300 300 299 299 299 299 299 299 299 299 299 299 299 299 298 298 298 298 298 298 297 297 297 297 297 297 296 296 296 295 295 295 295 295 295
293 293 292 292 292 292 292 292 292 293 293 293 293 293 292 292 292 292 291 290 290 290 290 289 288 288 288 288 288 288 291 293 293 293 292 290 289 288 290 293 293 291 291 292 292 293 294 294 295 296 298 298 299 299 299 299 299 299 299 299 299 298 298 298 298 298 298 298 298 297 297 297 297 297 297 297 296 296 296 296 295 295 295 295 295 295
293 293 293 293 292 292 292 293 293 293 293 293 293 292 292 292 292 292 291 290 290 290 290 289 288 288 287 288 289 289 290 292 293 293 291 290 288 287 287 292 292 291 291 291 291 290 290 291 292 293 295 298 299 299 299 299 299 299 299 298 298 298 298 298 298 298 298 297 297 297 297 297 297 297 297 296 296 296 296 296 295 295 295 295 295 295
294 294 294 293 293 292 293 293 293 293 293 293 292 292 292 293 293 292 291 291 290 290 290 290 290 289 289 288 289 289 289 291 292 292 291 290 288 286 285 289 291 292 291 291 290 289 288 289 289 291 294 298 299 299 298 299 298 298 298 298 298 297 297 297 297 297 297 297 297 297 297 297 297 297 296 296 296 296 296 295 295 295 295 295 295 294
294 294 294 294 293 293 293 293 293 293 293 293 292 292 291 292 292 292 291 291 291 290 290 291 291 291 290 290 289 289 289 291 292 291 290 289 288 286 284 288 290 292 290 291 290 289 288 288 291 294 297 298 298 298 298 298 298 298 298 298 297 297 297 297 297 297 297 297 297 297 297 297 297 296 296 296 296 296 296 295 295 295 295 295 294 294
294 294 295 294 294 293 292 293 294 294 294 294 293 292 291 291 291 291 291 291 291 291 291 291 291 291 290 288 287 288 290 291 291 290 289 288 287 285 284 287 290 290 290 290 290 289 288 288 290 293 297 297 297 297 297 297 297 297 297 297 297 297 297 297 297 297 297 297 297 297 297 297 297 296 296 296 296 296 296 295 295 295 295 294 294 294
294 295 295 295 295 294 293 293 294 295 296 295 293 292 291 291 291 291 291 291 291 291 291 291 291 291 289 287 287 288 291 291 291 290 289 288 286 284 283 286 288 289 289 289 288 287 287 287 288 291 295 296 297 297 296 297 296 296 296 296 297 296 296 296 296 297 296 296 297 297 297 296 296 296 296 296 296 296 295 295 295 295 294 294 294 294
295 295 295 296 296 295 295 294 295 296 296 295 293 292 292 292 291 291 291 291 291 290 291 290 289 287 286 286 287 289 291 292 291 290 289 287 286 284 283 285 287 288 288 288 287 286 286 287 288 290 294 296 296 296 296 296 296 296 296 296 296 296 296 296 296 296 296 296 296 296 296 296 296 296 296 296 295 295 295 295 295 294 294 294 294 294
295 295 295 295 295 295 295 295 296 296 296 295 294 294 293 293 292 292 291 291 291 291 290 287 284 283 284 285 287 289 291 292 292 291 289 287 286 285 283 285 286 287 287 287 286 285 284 286 287 289 293 295 296 296 296 296 296 296 296 296 296 296 296 296 296 296 296 296 296 296 296 296 296 296 296 295 295 295 295 295 294 294 294 294 294 294
294 295 295 295 295 294 294 295 295 295 296 295 295 294 294 293 293 293 293 292 291 289 286 285 284 284 284 285 286 287 289 291 291 291 289 288 287 285 283 285 286 286 287 286 285 284 284 285 286 287 290 293 295 295 295 296 296 296 296 296 296 296 296 296 296 296 296 296 296 296 296 296 296 296 295 295 295 295 295 294 294 294 294 294 294 294
293 294 294 295 295 295 295 295 296 296 296 294 293 293 292 293 293 293 292 291 290 288 286 285 284 283 282 284 284 285 287 288 290 290 289 289 287 284 282 284 286 286 286 284 283 283 284 285 285 285 286 289 292 295 295 295 295 296 296 296 296 296 296 296 296 296 296 296 296 296 296 296 296 296 295 295 295 295 295 294 294 294 294 294 293 293
295 295 295 296 297 297 297 297 298 298 297 295 294 294 293 293 292 291 290 289 288 287 287 286 285 284 281 281 282 284 286 286 288 289 290 289 286 283 280 283 286 286 286 282 281 282 283 284 284 284 283 285 289 293 294 295 295 295 296 296 296 296 296 296 296 296 296 296 296 296 296 296 296 296 296 295 295 295 294 294 294 294 293 293 293 293
297 297 298 298 298 298 298 298 298 298 298 297 296 295 294 292 291 289 288 288 288 288 287 287 286 285 283 281 281 283 285 286 286 287 289 288 286 282 280 282 285 286 285 281 280 281 284 285 284 284 283 283 286 289 292 293 294 295 295 295 295 295 295 295 295 295 296 296 296 296 296 296 296 296 296 295 295 295 294 294 294 293 293 293 293 292
298 298 298 298 298 298 298 298 299 299 298 298 297 296 295 292 290 289 288 288 288 288 288 288 287 286 285 283 282 282 283 285 286 286 286 287 285 282 280 282 283 284 283 280 280 282 284 284 284 284 283 283 284 285 289 291 293 294 294 294 295 295 295 295 295 295 295 295 296 296 296 296 296 296 296 295 295 294 294 294 294 293 293 292 290 289
298 298 298 298 298 298 298 298 298 299 298 298 298 297 295 293 291 290 288 289 288 288 288 288 288 287 285 283 281 280 281 284 285 286 286 286 284 280 279 281 282 283 283 281 280 281 281 283 282 282 282 284 284 284 286 289 291 292 293 294 294 294 294 294 295 295 295 295 295 296 296 296 296 296 296 295 295 294 294 294 293 293 292 290 288 287
295 296 296 296 297 297 297 297 297 298 298 298 297 297 295 293 292 291 290 289 289 288 288 288 288 286 284 282 280 280 280 283 284 286 286 286 283 280 279 280 282 282 283 281 280 279 279 281 281 281 282 284 284 283 283 285 287 289 290 292 292 293 294 294 294 294 295 295 295 296 296 296 296 296 296 295 295 294 294 294 293 292 289 287 285 284
292 293 292 293 293 294 295 295 296 297 297 298 297 296 295 293 291 291 290 290 289 289 289 288 288 287 285 283 282 281 281 282 284 286 286 286 284 281 279 280 281 282 283 283 282 280 279 279 280 281 281 282 283 283 283 284 285 286 287 288 289 291 293 294 294 294 294 295 295 296 296 296 296 296 295 295 295 294 294 294 293 291 287 285 284 283
290 290 290 290 291 291 292 293 293 294 295 296 296 295 294 293 291 290 290 290 290 290 289 289 288 287 286 285 285 284 282 282 284 286 287 286 284 282 281 280 281 281 282 281 281 281 280 279 279 279 279 280 281 282 283 283 284 284 285 286 287 288 292 293 294 294 294 295 295 295 296 295 295 295 295 295 295 294 294 293 293 291 286 284 283 283
289 289 289 290 290 290 290 291 291 292 293 293 293 293 292 292 291 290 289 289 289 289 289 289 288 287 285 285 284 283 281 281 284 287 288 286 284 282 281 281 280 280 280 279 279 279 279 278 277 277 278 279 280 281 282 283 283 284 285 285 285 286 289 291 292 293 294 294 295 295 296 295 295 295 295 295 295 294 294 293 293 291 288 284 283 283
288 289 289 289 289 289 289 289 290 290 291 291 291 291 290 290 290 289 289 288 288 288 289 288 288 287 285 285 284 282 280 280 284 287 288 286 284 282 281 280 280 280 280 279 278 277 276 276 276 276 277 278 279 280 280 282 283 283 283 285 285 285 285 288 289 290 291 292 292 292 293 293 294 295 295 295 295 294 294 293 293 292 290 286 284 283
286 287 288 288 288 288 289 289 289 289 290 290 290 290 289 288 288 287 287 287 287 287 286 286 286 286 286 286 285 283 280 280 283 287 288 286 285 283 281 280 280 280 280 279 278 277 276 276 276 277 276 277 278 279 279 279 281 282 282 283 284 284 283 285 286 287 288 288 288 287 287 288 290 292 293 294 294 294 294 293 293 293 291 289 287 285
283 285 286 286 287 288 288 288 288 288 287 287 287 287 287 287 286 286 286 286 286 286 285 284 284 284 285 285 285 284 282 282 284 287 288 287 285 283 281 281 281 281 281 280 279 278 277 277 277 278 278 277 277 278 278 278 279 280 281 282 283 283 282 283 284 285 285 285 285 284 283 285 286 289 290 293 294 294 294 293 293 293 292 291 289 287
281 283 284 284 285 286 286 286 285 285 284 284 284 285 285 285 285 285 284 285 285 285 285 285 284 284 284 283 283 283 283 283 284 286 287 286 285 284 282 281 281 282 281 281 280 279 278 278 278 278 278 277 277 277 277 278 278 279 279 280 281 281 281 281 283 284 284 285 285 283 283 283 285 287 289 292 293 293 293 293 293 293 292 292 291 289
281 282 283 282 283 283 284 283 283 283 283 283 283 284 284 284 283 283 283 284 284 284 283 283 283 284 284 284 283 282 282 283 284 285 286 285 285 283 282 281 282 282 283 282 281 281 280 278 278 277 277 276 277 278 278 278 279 279 279 279 279 279 279 279 281 282 283 284 285 285 284 284 284 285 286 288 288 288 287 287 289 291 292 291 291 290
279 280 281 282 282 282 281 281 281 282 282 282 282 283 283 283 283 283 283 283 282 282 282 282 281 281 281 282 283 283 282 282 282 283 284 284 283 283 282 282 282 282 282 282 281 281 280 279 278 277 277 276 276 277 277 278 278 279 278 279 278 278 278 278 279 281 282 283 284 285 284 282 282 282 283 283 284 284 283 283 284 286 287 286 287 289
278 278 280 281 280 280 279 281 281 281 281 282 283 283 283 283 282 282 282 282 282 282 281 281 280 280 280 281 281 281 281 281 282 283 282 282 282 282 281 281 281 282 282 281 280 280 280 279 278 278 278 277 276 276 276 276 277 279 280 279 278 279 279 278 278 278 279 280 282 283 283 280 280 281 281 281 281 281 282 281 282 283 285 284 283 284
277 277 278 278 279 279 280 280 281 281 282 282 282 282 282 282 281 281 281 281 281 281 281 281 280 280 279 279 279 279 279 280 280 281 280 280 281 281 281 281 281 281 281 280 280 279 280 279 279 278 277 277 277 277 277 277 278 280 281 280 279 279 280 280 279 278 278 279 281 283 284 282 281 281 281 282 281 281 281 280 280 281 284 282 282 282
278 277 276 277 277 278 278 279 280 281 281 281 281 280 281 281 280 280 280 279 279 279 279 279 279 279 278 278 278 278 278 279 280 280 279 279 280 280 280 281 281 281 281 280 280 279 280 280 279 279 278 277 277 277 276 278 279 281 282 280 280 280 281 281 280 279 279 279 280 282 285 283 282 282 282 281 280 280 281 279 280 282 283 281 280 280
277 276 275 275 276 277 279 280 280 280 280 279 279 279 279 279 280 280 280 279 279 279 279 279 278 278 277 277 277 277 277 278 279 280 280 279 279 279 280 280 281 281 281 280 279 279 279 280 279 278 278 278 278 278 277 278 279 280 281 281 281 280 278 278 278 278 279 280 280 281 282 282 282 281 281 281 280 279 279 281 282 283 284 281 279 278
276 275 274 275 276 277 279 278 278 278 278 278 278 278 278 278 279 280 280 279 279 279 278 277 277 277 277 276 276 276 276 276 277 278 280 281 280 279 278 279 280 280 281 280 280 279 278 279 278 277 277 277 278 278 278 278 279 279 280 281 281 280 279 278 278 278 278 279 279 279 280 280 280 279 280 279 278 277 277 278 278 280 283 281 280 278
275 275 275 276 276 277 276 276 277 277 277 277 277 277 278 278 279 279 279 279 279 278 277 277 277 277 275 275 275 275 275 275 276 277 277 280 281 281 279 278 278 279 279 279 279 279 279 278 277 276 276 276 277 277 278 278 278 279 280 281 281 280 279 279 278 278 278 278 278 278 278 278 278 278 278 277 277 276 275 276 277 278 279 280 279 278
275 275 274 275 275 275 276 276 276 276 276 277 277 277 276 276 277 278 278 278 278 277 276 277 277 276 275 275 275 275 274 274 275 276 276 276 277 278 279 279 278 278 277 277 277 278 279 278 277 276 275 275 276 276 277 278 278 279 279 280 280 279 278 277 278 278 278 278 278 277 277 277 277 278 278 278 277 276 275 275 276 277 277 278 278 278
274 273 273 273 273 274 274 275 275 275 275 276 276 276 275 275 275 276 277 277 277 276 277 276 276 276 276 276 275 275 275 275 275 275 275 275 276 276 277 277 278 278 277 277 276 276 276 277 277 277 276 276 275 275 275 276 277 278 279 279 279 278 277 276 276 276 277 277 277 276 275 275 276 277 278 278 277 275 274 275 275 276 276 277 278 278
275 274 273 273 272 272 273 273 273 273 273 274 274 275 275 275 276 275 275 275 276 277 277 276 275 275 275 275 276 276 276 276 275 275 275 275 275 276 276 276 277 278 278 278 278 277 276 276 276 276 277 277 276 276 275 274 275 276 277 278 278 278 277 277 276 276 276 276 276 276 275 276 276 277 277 276 276 276 275 275 275 275 275 276 277 278
275 274 274 273 272 272 271 271 271 271 272 272 273 273 274 276 278 277 275 274 275 275 276 275 275 275 275 275 276 277 277 277 276 275 275 275 275 275 275 276 276 276 277 277 277 277 277 277 277 277 278 278 278 277 276 275 274 274 275 276 277 278 277 277 276 275 275 274 274 274 275 276 276 277 277 276 276 276 276 275 275 274 275 275 276 277
274 274 274 274 273 272 271 271 271 272 272 272 272 272 272 273 273 274 274 274 274 274 274 274 274 274 274 274 275 276 277 276 276 275 275 275 275 275 275 275 276 276 276 276 276 276 276 276 277 279 281 281 280 279 277 276 274 274 274 275 276 277 277 277 276 275 275 274 274 274 274 274 274 275 276 276 276 276 276 276 275 275 274 274 275 276
273 273 273 273 273 273 272 272 272 272 272 272 272 272 271 271 271 272 272 273 273 273 273 273 273 274 274 275 275 276 276 276 275 275 275 275 276 275 275 275 275 275 275 275 275 274 275 275 275 277 279 282 283 282 279 277 276 275 274 275 276 276 277 276 276 275 276 275 274 273 273 273 273 274 275 276 276 275 276 275 275 275 274 273 274 275
Wind_Speed
2 2 2 3 3 3 2 2 3 3 3 3 3 3 3 4 4 5 5 5 5 6 7 8 9 10 12 16 19 21 23 23 23 23 22 21 21 21 21 21 21 21 20 19 18 17 17 16 17 17 17 18 18 18 18 18 18 17 17 16 16 15 15 14 14 13 13 12 12 11 11 10 10 9 9 9 9 8 7 7 6 5 5 5 6 6
2 2 2 2 3 3 2 2 3 3 4 4 3 3 3 4 4 4 4 4 4 5 6 8 10 11 12 14 17 21 23 24 25 25 24 23 23 22 21 21 21 20 20 19 18 17 17 16 16 16 17 17 17 18 17 17 17 16 16 16 15 15 14 14 13 13 12 12 12 11 11 10 10 9 9 9 9 8 8 7 6 5 5 5 5 6
3 3 2 2 3 3 3 3 3 3 4 4 4 4 4 5 4 4 3 4 4 5 5 6 9 11 12 13 16 20 22 24 25 26 25 25 24 23 22 21 20 20 19 19 18 17 16 16 16 15 16 16 16 16 16 16 16 15 15 15 14 14 14 13 12 12 12 12 12 11 11 10 9 9 8 8 8 9 8 8 7 6 5 5 5 5
4 3 3 2 2 3 3 3 3 4 4 5 5 5 5 5 4 4 3 3 4 4 4 5 7 9 10 10 13 17 21 23 24 25 26 25 24 23 23 22 21 20 20 19 18 17 16 16 15 15 15 15 14 14 14 14 14 14 14 14 14 13 13 13 12 12 11 11 11 11 11 10 9 9 8 8 8 9 9 8 7 6 5 5 5 5
3 3 3 2 2 2 3 3 4 4 5 5 6 6 6 5 4 3 3 4 4 4 4 5 6 7 8 8 11 15 19 21 23 24 24 24 24 23 23 22 22 21 20 19 19 18 17 16 15 15 14 14 14 13 13 13 13 13 13 13 13 13 13 12 12 12 11 12 12 11 11 10 9 9 8 8 8 9 9 8 7 6 5 4 4 5
3 3 3 2 2 2 2 3 4 4 5 5 5 5 5 4 4 4 4 4 4 4 4 4 5 6 7 8 11 15 18 20 21 22 22 22 22 22 22 22 21 21 20 20 19 19 18 17 16 15 14 14 13 13 12 12 12 12 12 12 12 12 12 12 12 12 12 12 12 12 11 10 9 8 8 8 8 8 8 8 7 6 5 4 4 4
3 2 2 2 2 2 2 2 3 4 4 5 5 5 5 4 4 4 4 4 3 3 3 4 4 5 6 8 11 14 16 18 19 20 21 21 21 20 20 20 20 20 19 19 19 18 18 17 16 15 15 14 13 13 12 12 12 12 12 12 12 13 12 12 12 12 12 12 12 12 11 10 9 8 8 7 7 7 8 8 7 6 5 4 3 3
4 3 2 2 2 2 2 2 2 3 4 4 5 5 5 4 4 4 4 4 3 3 3 4 4 4 5 6 9 10 11 12 13 15 17 17 18 18 18 18 18 18 18 18 18 18 17 17 16 16 15 14 14 13 12 12 12 12 12 12 13 13 13 13 13 13 12 12 12 12 11 10 9 8 7 7 6 6 7 7 7 6 5 4 3 3
6 4 3 3 3 3 3 2 2 2 3 4 4 5 5 5 4 4 4 4 3 3 3 3 4 4 4 4 5 7 7 8 8 9 10 11 12 13 15 16 16 17 17 17 17 17 16 16 16 15 15 14 14 13 13 12 12 12 12 12 13 13 13 13 13 13 12 12 12 11 11 10 9 8 7 6 6 5 5 5 6 6 5 4 4 3
6 5 4 3 2 3 3 3 2 2 2 3 3 4 5 5 5 5 5 3 3 2 2 3 4 4 3 3 4 5 7 8 10 11 11 11 11 12 12 12 13 13 15 15 16 16 16 16 16 15 15 15 14 14 13 12 12 12 12 13 13 13 13 13 13 13 12 12 11 11 11 10 10 9 8 7 6 5 5 4 4 4 4 4 4 4
5 5 4 3 2 2 3 3 2 2 3 3 3 2 2 3 4 6 6 5 3 2 2 2 3 3 3 3 3 4 6 7 9 10 12 12 12 12 12 11 11 12 14 15 15 15 16 16 16 16 15 15 15 14 13 12 12 12 12 13 13 13 13 13 13 12 12 11 11 11 11 10 10 9 9 8 7 6 5 4 4 4 3 3 3 3
5 4 4 3 3 3 3 2 2 3 3 3 3 2 1 1 2 4 6 6 5 3 3 2 2 2 2 2 3 3 4 5 6 6 7 8 8 9 8 8 9 10 12 12 13 14 16 16 16 16 15 15 14 14 13 12 12 12 13 13 13 13 13 13 12 12 11 11 11 11 11 10 10 10 9 9 8 7 6 5 5 4 4 3 3 3
4 4 3 3 3 3 3 3 3 2 2 3 4 4 3 2 1 2 3 4 4 4 3 3 2 2 3 2 2 2 4 5 5 5 4 4 4 5 5 5 5 5 6 7 8 10 13 15 15 15 14 14 14 14 14 13 13 13 13 13 13 13 13 12 12 12 11 11 11 11 11 11 10 10 10 9 9 8 8 7 6 5 5 4 4 4
5 4 4 4 3 3 4 4 4 4 3 3 3 3 3 3 2 2 3 3 3 3 3 3 3 2 2 3 2 1 3 4 4 4 4 3 3 3 4 4 4 3 3 4 4 5 8 10 10 11 13 13 14 14 14 14 14 14 14 13 13 13 12 12 12 12 11 11 11 11 11 11 10 10 10 9 9 9 9 8 7 7 6 5 5 5
6 6 5 5 5 4 4 4 4 4 3 3 2 3 3 3 3 3 4 4 4 3 3 3 3 2 1 2 2 2 1 3 4 4 4 3 2 2 3 4 4 3 3 3 3 4 5 5 6 6 9 10 11 12 13 13 14 14 14 13 13 13 12 12 12 12 12 11 11 11 11 11 10 10 10 10 9 9 9 9 8 7 7 6 6 6
6 6 6 6 6 5 4 4 4 4 3 3 3 3 4 3 3 4 4 5 4 4 4 4 3 2 2 2 2 2 0 3 4 4 5 3 1 1 2 4 4 3 3 3 3 2 2 3 3 4 6 9 11 12 13 13 13 14 14 14 13 13 13 12 12 12 12 12 12 11 11 11 11 10 10 10 10 10 9 9 8 8 7 7 7 6
5 5 6 6 6 5 5 4 4 4 4 4 4 4 4 4 4 4 4 4 4 3 3 4 3 3 1 0 1 2 1 2 4 5 5 4 1 1 1 3 5 4 3 3 2 2 2 2 2 3 4 8 11 13 13 13 13 13 13 13 13 13 13 13 12 12 12 12 12 12 12 11 11 11 10 10 10 10 10 9 9 8 8 7 7 7
5 5 5 5 5 6 6 5 4 4 4 4 4 4 4 3 4 4 4 4 4 4 3 3 3 3 3 2 2 2 2 2 3 5 5 4 2 1 2 2 3 4 4 3 3 2 2 2 2 2 4 9 11 12 12 12 12 12 12 13 13 13 13 13 13 13 13 13 12 12 12 12 11 11 11 10 10 10 10 9 9 8 8 8 7 7
5 5 5 5 5 5 5 5 5 6 6 6 6 5 5 4 4 4 4 4 4 4 4 4 3 3 3 3 3 3 3 3 4 4 5 4 2 1 2 1 3 4 4 3 3 3 2 2 3 4 6 9 11 12 12 12 12 12 12 12 12 12 12 12 12 12 13 13 13 13 13 12 12 12 11 11 11 11 10 10 9 9 8 8 8 8
6 5 5 5 6 6 6 6 6 7 7 7 7 6 6 5 5 5 4 4 4 4 3 3 3 3 2 2 3 3 4 3 3 4 4 4 3 1 1 1 3 4 4 3 3 2 3 2 3 4 7 9 10 11 11 11 11 11 11 11 11 11 11 12 12 12 13 13 13 13 13 13 12 12 12 12 11 11 11 10 10 9 9 9 8 8
6 5 5 5 6 6 6 6 7 7 7 7 7 6 6 6 5 5 5 5 4 4 3 3 3 2 2 3 3 4 5 5 4 4 3 3 2 1 0 1 2 4 4 3 2 2 2 2 2 3 6 8 10 11 11 11 11 11 11 11 11 12 12 12 12 13 13 13 14 14 13 13 13 13 12 12 12 12 12 11 11 10 10 9 9 9
5 5 5 5 6 6 6 6 7 8 8 8 8 7 6 6 6 6 6 5 5 4 4 2 2 2 2 2 3 5 6 5 5 4 4 3 3 2 1 1 2 3 4 3 2 2 2 2 2 3 6 9 11 11 12 12 12 12 13 13 13 13 13 13 13 14 14 14 14 14 14 13 13 13 13 13 13 12 12 12 11 11 10 10 10 9
4 4 5 5 4 4 5 6 7 7 8 8 7 6 6 6 7 6 6 5 5 4 3 3 3 3 2 2 2 3 4 4 4 3 4 4 4 3 2 2 2 3 3 3 2 2 2 2 2 3 6 10 12 12 13 13 13 14 14 14 14 14 14 15 15 15 15 15 14 14 14 14 13 13 13 13 13 13 12 12 12 11 11 10 10 10
3 4 4 4 4 3 4 5 6 6 6 5 4 3 3 4 4 4 4 4 4 5 4 4 4 3 3 3 2 2 3 3 3 3 3 4 3 3 3 3 4 4 3 2 3 3 3 2 2 3 3 9 12 14 14 14 15 15 15 15 15 15 15 15 15 15 15 15 14 14 14 14 14 13 13 13 13 13 12 12 12 11 11 11 10 10
3 4 4 4 4 5 5 6 7 7 6 5 4 4 4 5 5 5 5 5 5 5 5 4 4 3 2 2 2 2 3 3 3 3 3 3 3 3 3 4 5 5 4 2 3 3 3 3 3 2 2 6 10 13 15 15 16 16 16 16 16 16 15 15 15 15 15 15 15 14 14 14 14 14 13 13 13 13 12 12 12 11 11 11 10 10
5 5 6 7 8 9 10 10 11 11 10 8 6 5 6 6 6 6 5 5 5 5 5 4 3 3 2 2 2 2 3 3 3 3 3 3 3 2 2 3 4 4 4 2 2 3 3 3 3 3 3 4 8 11 14 15 16 16 16 16 16 15 15 15 15 15 15 15 15 15 15 15 14 14 14 13 13 13 12 12 12 11 11 11 10 10
9 10 11 11 12 12 13 14 14 15 14 12 10 9 8 7 7 6 5 5 5 5 5 4 4 3 2 2 2 2 3 3 3 3 2 3 3 2 2 3 4 4 3 2 2 2 4 4 4 4 4 4 5 7 12 14 16 16 17 16 16 15 15 15 15 15 15 15 15 15 15 15 15 14 14 13 13 13 12 12 12 11 11 10 9 8
11 11 12 13 13 14 14 15 16 16 16 16 15 13 10 8 7 6 6 6 6 5 5 4 4 3 3 2 2 2 2 2 2 2 1 2 2 2 2 3 3 3 3 2 1 1 3 3 4 4 4 4 4 6 9 12 14 16 16 16 16 15 15 15 15 15 16 16 16 16 16 15 15 14 14 14 13 13 12 12 12 11 10 8 5 4
10 10 11 12 13 13 14 14 15 16 17 17 16 14 10 7 6 6 6 6 5 5 4 4 4 3 3 3 2 1 1 2 2 2 2 2 2 2 2 2 3 3 3 2 1 0 2 2 3 3 4 5 5 5 6 9 11 13 14 15 16 16 15 15 16 16 16 16 16 16 16 16 15 15 14 14 13 13 13 12 11 10 7 5 3 2
6 7 8 9 10 10 10 10 11 14 16 17 16 13 8 5 4 5 5 6 6 5 5 4 3 3 3 3 2 1 1 3 3 3 3 3 2 2 2 3 3 3 3 3 2 0 2 2 3 3 4 5 6 5 5 6 6 7 8 11 13 14 15 16 16 16 16 16 16 16 16 16 15 15 15 14 14 13 13 12 11 7 3 2 2 2
4 4 4 4 5 5 6 6 7 9 12 14 13 10 6 4 3 4 5 5 5 5 5 4 4 3 4 3 3 2 2 3 4 4 4 3 3 3 3 3 3 3 3 3 2 1 1 2 2 3 4 5 5 5 5 5 5 5 4 5 7 9 12 14 15 15 15 16 16 16 16 16 15 15 15 14 14 13 13 13 11 7 3 3 3 3
3 4 3 3 3 3 4 4 4 5 7 8 7 6 5 4 4 4 4 4 5 4 4 4 4 4 4 3 3 3 2 3 4 6 6 4 2 2 3 4 3 3 3 1 2 2 2 1 1 1 2 3 4 4 5 6 5 5 4 4 4 5 8 10 11 12 13 15 16 16 16 16 16 15 15 15 14 14 13 13 11 7 4 4 4 4
3 3 3 3 3 3 3 3 4 4 4 4 4 4 4 4 4 4 3 4 4 4 4 4 4 4 3 3 2 2 1 2 5 8 8 4 3 2 3 3 3 3 2 1 1 1 1 1 1 1 1 2 3 3 4 5 5 5 5 5 4 4 5 6 7 8 9 11 12 13 15 15 15 15 15 15 15 14 14 14 12 8 6 4 4 4
4 4 3 4 3 3 3 3 3 4 4 4 4 4 4 4 4 4 4 3 3 3 3 3 4 4 4 3 2 2 1 2 5 8 9 5 3 3 3 3 4 4 3 2 0 1 1 1 1 1 0 1 2 2 3 4 5 5 5 5 5 4 4 3 3 3 4 5 6 6 9 10 12 13 14 15 15 14 14 14 13 11 9 6 5 4
4 4 3 3 3 3 4 3 3 4 4 4 4 4 4 4 4 4 4 3 3 3 2 2 2 3 4 4 3 2 2 2 5 8 8 5 4 3 3 3 4 4 4 3 2 1 0 0 0 1 1 1 1 1 1 2 2 3 4 4 5 4 3 3 3 2 2 2 2 2 2 3 5 7 9 12 13 14 14 14 13 12 11 9 8 6
4 3 3 3 3 4 4 4 4 4 4 3 3 4 4 4 4 4 3 3 4 4 4 3 3 2 2 3 3 3 3 3 6 8 8 6 4 3 3 3 4 4 4 4 3 2 1 1 1 1 1 1 1 1 1 0 0 1 2 3 4 3 3 3 3 3 3 3 2 2 1 1 2 3 4 9 11 13 13 14 13 13 12 11 10 8
3 3 3 3 3 3 3 3 3 3 3 3 3 3 4 4 4 4 4 4 4 4 4 4 4 4 4 3 2 2 3 4 6 7 8 6 5 4 3 3 4 5 5 5 4 4 3 2 1 1 1 1 1 1 1 1 1 2 2 3 3 3 2 2 3 3 3 4 3 3 2 2 2 2 3 7 9 11 12 13 13 12 12 12 11 11
3 3 2 2 2 3 3 3 3 3 3 3 3 4 4 4 4 4 4 4 4 5 4 4 4 5 6 5 4 3 3 5 6 7 8 6 5 4 3 3 4 5 5 5 5 5 4 3 2 2 1 1 1 1 2 3 3 4 3 2 2 2 1 1 2 2 3 3 4 4 4 3 3 3 3 3 4 4 5 5 6 7 9 9 10 11
3 3 2 2 2 3 3 3 3 3 3 3 4 4 4 5 5 5 4 4 5 5 5 5 4 5 6 6 6 5 4 4 5 6 7 6 5 4 3 4 4 4 4 4 4 4 4 4 3 3 2 2 1 1 0 2 3 4 4 2 1 1 0 1 1 2 3 3 4 4 3 3 3 3 3 3 3 3 3 2 2 2 3 2 4 7
3 3 2 3 3 3 3 3 3 3 3 4 5 5 5 5 5 5 5 5 5 5 5 6 5 5 5 6 6 6 5 2 1 2 4 4 4 4 4 4 4 4 4 3 3 4 4 3 3 3 2 2 2 1 1 2 3 4 5 3 2 2 2 2 1 1 2 3 3 4 3 3 3 3 3 3 3 4 4 3 3 2 3 2 2 3
3 3 3 3 3 3 3 3 3 3 4 4 4 4 4 4 4 4 4 4 4 4 4 5 5 5 5 5 5 5 5 5 4 3 1 2 3 4 3 3 3 4 4 4 3 3 4 3 3 2 2 2 2 2 2 2 4 5 6 5 4 3 3 3 3 2 2 2 3 4 4 4 3 3 4 4 3 3 3 3 3 3 3 3 3 3
4 4 3 3 3 3 3 3 4 4 4 4 4 4 4 4 4 4 4 3 3 3 3 3 3 3 4 4 4 5 5 5 5 4 4 2 2 3 4 3 3 4 4 4 3 3 4 4 3 3 3 3 2 2 1 2 3 5 6 4 3 3 3 3 3 3 3 3 3 4 5 4 4 4 4 4 3 2 2 2 3 4 4 3 3 3
4 3 3 3 3 3 4 4 4 4 4 4 3 3 3 3 4 4 4 4 3 3 3 3 3 3 3 3 3 3 4 4 5 5 4 4 3 2 3 4 4 4 4 4 4 3 3 3 3 3 3 3 3 2 2 3 3 4 4 4 4 4 2 2 3 3 4 4 4 4 4 4 4 3 3 3 2 2 1 2 3 4 5 4 3 3
4 3 3 3 3 3 4 4 3 3 3 3 3 3 2 2 3 4 4 4 4 4 3 3 3 3 3 3 2 2 2 3 4 4 5 5 5 4 2 2 3 4 4 4 4 3 3 2 2 2 1 2 2 3 3 3 4 4 4 4 5 4 3 3 3 4 4 4 4 4 4 4 3 3 3 2 2 2 2 2 2 3 4 3 3 3
4 3 3 3 3 3 3 3 3 3 3 3 3 3 2 2 2 3 3 4 4 4 3 3 3 3 3 2 2 1 1 2 3 3 4 5 6 6 4 3 2 2 2 3 3 3 3 3 2 1 1 1 2 2 3 3 4 4 4 5 4 3 2 2 3 4 4 4 4 4 3 3 3 3 3 2 2 2 2 3 3 3 3 3 3 3
4 4 3 3 3 3 3 3 3 3 3 3 3 2 2 2 2 2 3 4 4 3 3 3 3 3 3 3 2 2 1 1 2 2 2 3 4 4 4 4 3 3 2 2 2 2 3 3 3 3 2 2 1 1 1 2 3 3 4 4 4 2 2 2 2 2 3 4 4 3 3 3 3 3 3 4 3 3 2 2 3 4 3 3 3 3
4 4 3 3 3 3 3 3 3 3 3 3 2 2 2 2 2 2 3 3 3 3 3 2 3 3 4 4 3 3 3 2 1 1 1 2 2 3 3 3 4 4 3 3 3 2 3 3 4 4 3 3 1 1 0 1 2 3 3 4 3 3 2 2 2 2 2 3 3 4 4 3 3 3 4 4 3 2 2 2 3 3 3 3 3 4
5 4 4 4 4 3 3 3 3 3 3 3 2 2 1 2 3 3 3 2 3 3 3 2 2 3 3 3 3 3 4 3 3 2 2 1 2 2 2 2 3 3 3 3 3 3 2 2 3 3 4 4 3 2 2 1 2 2 3 3 3 3 3 2 2 2 2 3 4 5 5 4 4 4 4 3 3 2 2 2 2 3 3 3 3 4
5 5 4 4 4 4 3 3 3 4 4 3 3 2 1 2 3 4 2 2 2 2 3 3 3 3 3 2 3 3 3 3 3 2 2 1 1 1 2 2 2 2 2 3 3 2 2 1 0 2 3 4 4 3 3 3 2 2 2 3 3 3 3 3 3 3 3 3 4 4 5 4 4 4 4 4 3 3 3 3 3 3 3 3 3 4
5 5 5 4 4 4 4 4 4 4 4 4 4 3 2 2 2 2 2 2 2 2 2 2 3 3 3 3 3 3 3 3 3 2 2 2 1 1 1 1 2 2 2 2 2 2 2 2 1 2 4 4 4 4 4 3 3 2 2 2 3 3 3 3 3 3 4 4 4 4 4 3 2 2 4 4 4 4 4 3 3 3 3 3 3 4
4 4 4 4 4 4 4 4 4 4 4 5 4 3 2 2 2 2 2 2 2 2 2 2 2 3 3 3 3 3 3 3 3 3 3 2 2 2 2 2 2 2 3 2 2 2 2 2 1 2 3 6 7 7 4 4 4 3 2 2 3 3 3 3 3 3 4 4 4 4 4 3 3 3 3 4 4 4 4 4 4 4 3 3 3 4
Wind_Direction
131 144 149 131 113 96 79 78 95 103 98 80 66 58 54 55 50 43 41 58 81 94 96 94 91 91 94 103 109 112 113 113 112 111 109 108 107 106 107 108 109 111 113 116 119 122 126 128 131 133 135 136 138 139 140 141 141 142 143 143 143 144 144 146 148 151 153 154 155 155 154 153 152 151 151 149 147 145 144 146 149 153 159 165 169 170
128 133 135 119 109 104 98 79 90 105 108 96 85 75 72 72 64 52 41 52 70 87 98 100 99 97 97 103 108 112 114 114 113 112 111 109 107 107 107 107 108 110 112 114 117 120 123 126 129 132 134 136 138 140 141 142 143 144 145 145 145 145 146 148 151 153 155 155 154 152 151 151 152 153 153 152 151 151 151 152 154 159 166 173 176 177
142 140 144 121 111 109 110 99 96 100 104 99 92 83 80 79 72 61 50 54 64 77 91 100 103 103 102 105 110 114 115 115 115 114 114 113 112 112 112 112 112 113 114 115 118 120 123 125 128 131 133 135 138 140 142 143 145 146 146 146 146 147 148 150 153 155 156 155 152 150 149 150 152 155 158 159 159 158 158 159 161 165 174 180 182 182
148 147 151 127 104 101 112 118 114 105 98 94 87 80 77 77 73 63 52 58 63 69 77 92 101 105 106 108 111 114 116 116 116 116 116 117 118 118 118 118 118 118 119 120 121 123 125 127 129 131 132 134 136 138 140 142 144 145 146 146 146 147 148 151 153 155 155 152 149 147 147 150 154 159 165 166 166 165 164 163 165 169 176 183 186 186
151 149 147 130 110 102 109 119 118 110 100 92 86 80 75 76 74 67 54 57 62 67 70 82 94 102 107 110 113 115 115 116 116 117 118 119 121 122 123 123 124 124 125 126 126 128 129 130 131 132 133 134 134 136 138 140 142 143 144 144 145 146 147 150 152 153 152 149 148 147 148 152 157 163 170 172 172 170 168 167 167 169 176 184 190 190
148 143 138 125 118 119 124 125 123 117 106 95 88 83 79 78 77 72 64 60 61 63 64 68 81 92 102 107 111 113 113 114 114 115 117 119 121 123 124 126 127 128 129 130 131 132 132 133 133 134 133 134 134 135 136 137 139 140 141 142 143 145 147 149 150 151 150 149 148 148 150 153 158 165 173 175 176 173 171 169 168 169 174 182 191 195
135 126 119 110 109 115 121 126 128 126 118 110 100 92 86 80 76 72 68 65 64 66 66 64 67 78 90 101 107 109 110 110 111 112 114 116 118 121 123 125 127 129 131 132 133 134 134 134 134 134 134 134 135 136 136 137 139 139 140 142 144 146 148 149 150 150 150 149 150 150 151 154 158 165 172 175 176 176 174 171 169 168 171 179 190 198
134 127 122 119 118 116 111 111 116 121 123 123 120 113 105 93 84 78 73 69 68 72 78 73 69 68 74 92 101 105 107 108 108 109 111 113 116 119 122 124 127 129 131 133 134 134 135 135 135 136 136 137 138 139 140 141 141 142 143 144 146 148 149 150 150 151 151 152 152 153 153 155 158 162 168 171 174 176 175 173 171 169 170 178 189 199
139 138 138 137 137 134 127 108 93 97 114 124 128 128 126 119 110 98 84 72 65 66 82 87 82 75 66 78 91 99 102 103 104 106 108 111 114 118 121 123 126 130 133 134 135 136 137 137 138 139 140 141 143 144 145 145 145 145 146 147 148 150 150 151 151 152 153 155 156 156 156 157 159 162 165 167 170 174 176 174 171 169 170 178 188 199
135 137 135 135 135 133 128 119 101 84 88 106 117 124 130 131 128 120 106 89 70 58 66 85 92 92 82 79 87 96 101 101 101 103 107 112 116 119 121 124 128 133 137 138 140 141 141 142 143 144 145 147 148 148 147 147 147 147 148 149 150 151 151 152 153 154 156 158 160 161 161 162 163 165 167 168 171 173 174 172 168 165 168 178 189 200
131 131 129 126 114 98 96 103 99 91 90 94 91 90 104 127 132 130 126 121 109 85 64 63 78 93 101 97 95 98 102 101 101 102 106 111 115 119 121 127 133 139 143 144 146 147 148 148 149 150 150 151 150 149 147 146 147 147 149 150 151 152 152 153 155 157 160 163 165 166 167 167 168 170 172 173 176 176 176 172 166 162 166 179 191 203
134 133 130 127 117 101 85 83 84 93 106 111 110 107 109 139 136 131 132 133 131 126 111 75 56 57 78 96 102 102 102 104 104 106 107 110 112 115 119 126 134 140 145 147 149 151 152 153 153 153 153 152 150 148 145 146 146 148 149 151 152 153 154 156 158 161 165 169 172 173 173 173 173 174 177 179 182 182 182 178 173 169 172 183 196 209
133 132 129 126 123 120 118 114 112 116 133 145 149 152 159 165 145 121 120 125 128 128 125 109 76 40 23 27 58 96 108 108 108 109 108 108 110 114 117 121 127 134 141 145 149 153 155 154 154 153 152 150 149 147 145 147 148 150 151 153 155 156 158 160 163 166 170 175 178 179 179 178 178 179 181 184 188 189 189 186 183 180 181 190 201 212
134 133 131 130 131 134 138 139 143 149 160 162 156 148 142 138 127 117 111 112 113 114 112 105 92 60 16 4 5 36 113 114 112 109 106 102 103 111 120 120 118 118 122 132 143 152 153 153 152 151 151 149 148 147 148 150 152 154 155 157 159 161 164 166 169 172 176 180 183 184 183 182 181 181 184 188 192 194 195 192 190 188 189 194 202 212
142 142 143 144 146 148 150 151 152 153 152 136 121 112 106 113 120 124 123 123 122 116 104 96 83 61 26 3 349 351 107 120 121 120 117 102 82 82 111 119 116 110 112 130 141 147 147 147 148 150 152 151 151 151 153 155 158 160 161 163 165 167 170 172 175 178 181 184 187 188 187 185 184 185 186 191 195 198 199 197 195 193 193 197 202 210
148 149 151 153 154 156 158 157 154 149 137 123 118 122 128 134 136 134 131 133 132 129 123 115 101 74 21 358 342 339 96 128 130 131 130 123 86 46 93 125 127 124 123 133 136 133 120 127 140 148 150 154 155 156 158 161 164 166 167 169 171 174 177 179 181 183 186 188 190 190 190 188 187 187 189 194 198 202 202 200 198 196 196 198 202 208
150 153 155 154 156 158 158 156 153 148 140 134 135 139 145 147 144 138 135 136 136 139 143 141 137 132 127 335 314 304 259 148 138 135 134 136 119 22 46 134 142 144 143 141 134 116 88 100 118 136 150 157 160 161 162 166 169 172 174 176 178 180 182 184 186 188 190 191 192 193 192 191 191 191 192 197 201 205 205 203 201 199 199 201 204 208
155 157 156 155 156 156 155 155 154 150 146 144 143 143 143 143 140 139 141 144 148 152 156 157 157 155 150 171 198 220 220 170 146 139 139 142 135 24 3 128 146 150 151 149 139 119 100 104 117 138 153 164 165 166 167 171 174 177 180 182 184 186 188 189 191 192 193 195 195 196 195 194 193 193 195 199 204 207 208 206 204 203 203 204 207 210
160 161 160 158 156 153 154 159 160 160 158 156 152 147 144 145 145 146 151 157 161 163 163 166 168 166 159 165 168 172 183 170 149 141 144 144 136 77 10 117 145 150 154 156 147 131 116 117 140 156 163 169 171 173 174 177 180 183 186 189 191 192 194 195 195 196 197 198 199 199 198 197 196 195 196 200 204 208 210 208 207 206 206 208 210 212
160 164 165 158 152 151 158 167 170 168 166 159 152 148 149 152 154 157 162 167 170 170 164 166 168 167 154 142 142 152 166 160 147 139 142 138 128 94 24 144 153 156 164 162 149 132 129 133 149 164 172 176 178 181 183 186 189 192 195 197 199 199 200 201 202 202 203 203 203 202 201 200 198 197 198 201 205 209 210 209 209 209 209 211 212 214
160 167 170 159 154 155 165 172 173 169 162 153 148 148 152 155 160 166 170 169 170 170 169 170 163 148 127 136 147 158 165 161 154 145 137 131 123 105 28 160 161 162 168 161 140 123 130 140 152 168 176 182 186 190 193 197 200 202 204 205 206 207 207 207 208 208 208 208 207 206 204 202 201 199 200 202 205 208 210 210 210 210 211 212 214 215
159 164 165 160 158 159 161 163 164 162 157 154 155 158 160 163 167 170 170 168 167 167 164 141 101 78 82 121 146 159 167 168 162 152 135 140 148 155 160 162 160 162 171 161 139 121 127 145 162 178 185 189 194 198 202 205 208 210 211 211 211 211 211 211 211 211 211 211 210 208 207 205 204 202 202 204 206 208 210 211 211 212 212 214 215 216
148 152 153 156 154 149 144 147 152 155 157 161 165 167 163 165 166 167 165 162 156 143 119 98 80 66 60 81 117 149 169 174 165 149 140 157 163 164 159 159 163 170 180 161 143 133 139 158 176 190 195 197 200 204 208 211 213 215 215 215 215 214 213 213 213 213 213 212 211 210 209 208 207 205 205 206 207 209 211 212 213 214 214 215 216 217
120 132 141 143 137 128 128 138 146 152 157 159 156 146 133 135 136 137 138 132 122 112 103 100 91 78 64 79 102 142 180 180 170 156 153 166 163 154 153 161 172 182 186 158 141 141 153 173 187 198 206 205 206 208 211 214 216 218 218 217 217 216 215 215 215 214 214 214 213 213 212 211 210 208 208 208 209 210 212 213 214 215 216 217 217 219
117 125 134 135 133 132 135 143 148 152 152 146 132 116 104 102 99 99 100 104 109 114 118 114 107 98 91 109 129 164 195 192 181 172 166 167 152 141 153 167 176 181 180 148 134 142 159 179 190 199 211 213 213 213 214 216 218 219 220 220 219 218 217 217 216 216 215 215 215 214 214 213 212 211 210 210 211 212 214 215 216 217 218 219 219 221
127 133 137 138 138 139 143 147 151 152 151 145 137 127 119 113 109 107 109 117 127 133 134 134 137 138 128 130 153 179 194 201 199 191 179 164 148 140 165 176 179 177 164 133 131 150 169 185 193 196 203 216 218 218 218 219 220 221 221 221 220 220 219 218 218 217 217 216 216 216 216 215 214 213 212 212 212 213 214 216 217 219 220 221 222 222
131 136 140 141 142 144 147 151 153 153 152 148 144 140 134 129 127 129 139 149 153 153 154 160 160 153 136 139 162 178 183 194 204 206 188 159 145 145 172 180 177 167 146 127 140 171 184 192 196 197 200 208 218 222 221 222 222 222 223 222 221 221 220 220 219 219 218 217 217 217 217 216 215 214 213 213 213 214 215 216 218 219 221 222 222 223
133 138 143 145 146 148 150 153 155 155 154 151 148 146 142 140 143 150 162 161 160 160 166 169 168 161 156 155 154 157 171 190 200 203 183 154 143 146 166 172 167 155 134 117 127 181 199 204 201 198 199 199 207 218 224 224 224 224 223 222 222 221 221 221 220 220 219 218 218 218 218 217 216 215 214 214 214 215 215 217 218 220 222 220 217 217
132 137 142 146 148 149 151 153 156 157 157 155 154 153 152 151 154 159 161 157 157 162 173 175 170 158 142 129 111 101 178 203 197 182 152 145 135 131 148 158 157 147 130 112 90 69 239 229 214 202 199 196 199 208 220 223 224 224 223 223 222 222 221 221 221 220 219 219 218 218 218 218 217 216 215 215 215 215 216 217 218 219 218 209 195 180
126 133 139 144 147 148 149 151 155 158 159 158 158 158 158 156 153 150 148 152 157 165 172 175 166 147 123 110 100 104 216 210 192 171 157 158 150 138 141 155 160 157 144 130 115 98 261 240 221 207 199 196 197 200 207 214 218 221 221 221 222 221 221 220 220 220 219 219 219 219 218 218 218 217 216 216 215 215 216 217 216 213 188 164 154 157
118 122 128 134 138 140 142 145 151 156 159 160 160 159 156 147 135 133 141 153 161 167 170 170 164 152 138 134 142 169 205 197 183 172 167 174 164 146 149 157 166 170 167 152 152 176 239 241 223 203 193 196 198 198 199 202 206 208 208 213 218 221 222 220 219 219 218 219 219 219 219 218 218 218 217 216 215 215 215 217 214 203 146 144 151 163
111 111 112 112 115 120 128 135 142 150 155 157 157 155 148 136 126 125 139 155 162 166 166 166 163 158 158 160 165 172 179 178 174 173 173 175 160 142 152 154 163 175 186 158 147 161 194 216 205 183 182 199 201 200 198 197 197 196 194 196 205 218 224 222 219 218 217 218 219 219 219 219 219 218 218 216 215 214 214 216 213 199 151 155 164 175
100 101 101 102 105 109 118 125 130 135 140 141 142 140 136 128 121 120 131 147 156 160 161 161 160 159 161 160 151 142 145 169 174 174 175 169 152 137 149 150 158 166 176 134 58 83 162 174 155 145 181 208 210 204 198 196 193 190 188 189 194 206 221 222 219 217 214 216 217 218 218 219 219 219 219 216 215 214 214 216 212 198 161 161 169 176
96 97 99 101 103 106 109 113 118 122 125 126 126 125 121 116 112 112 117 126 133 137 143 151 155 158 160 156 140 124 132 182 178 175 174 169 155 143 146 152 156 159 165 170 121 34 28 57 94 121 157 215 216 207 197 196 193 189 184 185 187 191 201 205 208 210 210 209 211 215 218 220 221 220 219 216 214 214 215 216 212 202 181 175 170 169
89 91 95 101 106 110 111 111 111 110 109 110 113 114 112 109 106 103 104 101 96 90 87 106 131 147 158 161 157 152 166 184 180 176 174 173 164 148 146 160 161 163 168 176 174 155 66 31 99 134 119 157 202 216 210 206 194 185 178 181 181 181 181 177 176 178 180 179 182 191 208 219 223 222 219 215 213 213 214 216 214 208 194 183 176 171
88 89 90 97 107 113 114 111 106 101 96 94 95 99 102 101 100 97 96 92 88 82 75 69 74 95 128 144 151 154 161 167 172 174 175 175 168 156 152 165 168 169 173 177 179 178 163 142 136 136 125 142 178 213 235 249 155 156 167 178 179 175 169 163 161 158 157 159 160 163 157 176 203 215 217 212 212 212 214 216 217 215 202 192 185 181
91 89 84 88 97 105 107 100 97 95 94 92 91 92 95 96 96 95 94 92 90 87 82 74 67 62 63 80 107 132 145 153 164 171 176 175 172 164 158 163 171 177 180 180 182 183 174 148 132 129 146 175 192 198 186 155 149 159 173 178 175 169 157 155 156 156 155 163 166 164 159 163 171 185 199 208 211 212 213 216 218 217 210 202 196 192
94 92 83 80 85 94 99 97 96 97 99 99 98 96 95 94 94 93 91 89 89 90 89 82 72 63 56 59 65 84 118 145 159 169 174 175 174 169 160 159 173 183 188 182 181 181 178 165 159 166 198 219 223 206 167 166 172 179 180 170 151 133 132 145 159 162 162 166 167 165 160 159 160 164 174 189 194 199 207 214 218 220 219 214 209 206
97 96 90 85 86 90 98 102 104 103 102 103 102 101 97 93 89 85 83 83 84 85 86 84 77 66 55 51 51 56 75 130 158 169 172 173 174 171 163 161 172 181 185 181 178 178 180 177 175 176 184 196 214 226 194 185 182 179 167 150 128 107 149 153 166 168 166 167 168 168 160 154 152 155 156 156 156 160 171 180 193 202 206 220 225 223
100 94 87 83 82 88 97 105 109 109 109 107 105 103 100 95 90 85 82 82 82 82 82 81 78 70 60 51 44 40 37 46 105 156 167 171 172 171 164 161 165 169 171 170 173 176 179 178 172 167 162 161 166 174 178 195 187 175 159 159 175 202 205 179 168 164 162 165 168 167 161 156 156 160 163 165 168 170 173 173 172 168 161 158 191 225
101 94 88 82 79 81 87 96 103 109 112 110 107 105 104 104 101 97 91 86 84 84 86 83 79 71 61 53 45 38 32 28 28 35 73 141 157 161 156 153 154 155 159 162 169 175 180 171 161 150 142 141 141 146 157 179 179 174 171 178 181 178 166 162 159 158 164 171 172 171 167 167 172 177 179 183 184 182 175 168 168 170 169 165 173 186
104 102 100 94 90 89 92 97 101 103 105 105 108 113 118 120 120 118 113 106 101 98 100 99 93 83 69 55 44 37 34 29 28 31 41 66 113 140 148 149 149 151 154 159 168 175 179 168 160 157 159 154 145 137 143 171 177 178 182 178 158 130 116 153 163 166 174 183 186 184 182 180 183 187 187 187 185 179 167 167 173 177 178 177 180 189
102 102 102 99 101 104 107 104 103 102 101 101 107 114 121 125 128 129 127 125 126 125 120 112 107 100 90 70 49 34 27 24 26 32 39 45 63 98 136 148 152 155 156 160 167 173 172 161 154 155 163 158 148 139 140 156 171 179 183 168 152 142 156 185 185 181 186 187 189 190 192 188 183 179 179 172 161 148 152 188 197 198 194 183 184 195
104 102 99 95 94 94 95 97 100 102 103 106 107 109 107 114 123 126 125 128 130 131 125 113 102 95 90 85 74 53 29 18 21 28 35 43 49 58 80 123 146 156 160 163 166 168 163 152 142 136 137 135 132 133 140 154 168 177 183 174 172 173 179 174 171 173 182 188 191 193 194 177 161 150 152 152 145 142 162 187 207 215 209 186 179 187
108 106 102 98 93 93 95 99 99 98 97 102 103 102 95 97 111 121 124 128 131 133 130 122 110 100 91 97 97 86 48 20 19 23 29 35 42 48 52 63 85 115 138 149 157 161 162 157 151 135 99 86 95 115 139 154 164 172 180 183 184 177 142 130 147 165 177 185 190 191 179 155 142 140 154 175 183 182 178 185 197 206 210 188 178 183
110 109 108 103 100 103 109 108 101 94 92 94 93 88 75 70 84 106 123 129 133 136 138 127 118 117 124 131 130 121 98 61 35 24 21 25 28 34 41 49 57 64 74 81 97 119 141 146 145 136 114 87 72 77 122 148 156 163 172 180 179 164 102 105 135 165 177 181 181 173 151 138 141 160 190 202 206 202 191 193 196 198 198 190 187 191
119 120 120 115 111 110 112 107 102 99 98 97 90 79 64 65 80 95 112 123 130 135 136 116 111 120 137 144 146 142 136 127 109 72 44 39 37 41 46 54 61 68 76 78 78 85 103 126 137 138 133 134 146 181 246 133 143 153 162 168 171 171 170 168 165 166 172 172 164 154 141 142 160 186 207 209 212 213 212 212 207 203 196 193 195 199
132 130 130 125 121 118 116 112 110 109 110 106 97 81 68 91 103 107 106 116 126 130 130 114 109 117 132 141 148 151 147 142 136 125 104 82 66 60 60 65 68 71 74 77 78 82 90 112 133 143 145 150 162 177 182 159 150 151 156 160 167 178 194 187 168 154 153 156 153 151 152 162 178 193 200 206 216 226 227 222 218 212 205 200 200 204
135 136 136 131 129 129 132 129 124 123 124 122 115 100 72 83 99 107 108 112 117 121 124 123 122 122 127 136 143 143 139 133 129 125 120 111 101 90 81 80 78 73 64 59 56 53 49 43 161 186 173 163 161 161 160 158 156 153 149 158 168 179 191 179 160 148 149 148 150 155 165 176 183 183 180 194 211 226 230 228 225 219 212 205 205 209
134 137 140 138 139 141 144 141 136 134 135 134 131 123 100 71 68 77 88 97 100 104 111 119 122 123 126 134 137 138 134 129 127 125 127 125 121 117 114 109 102 90 73 54 39 31 26 4 315 257 225 202 184 166 153 153 150 149 150 169 177 181 185 172 160 156 158 155 153 156 164 170 166 160 164 186 206 222 232 234 234 228 217 206 207 214
135 138 140 141 144 147 149 146 144 142 142 140 138 132 121 104 87 77 77 87 94 95 94 102 112 121 130 137 141 140 138 135 136 139 142 140 135 132 131 128 121 112 101 88 65 45 31 16 339 289 248 219 204 190 167 158 153 154 171 194 193 185 181 169 158 155 159 158 156 155 158 159 157 158 166 182 201 219 234 238 237 231 217 201 203 216